Location: ??? ??????
(31.2030°N, 45.4262°E)
Time: 07:14:17
(UTC+00:00)

Daily predictions for brighter satellites

Satellite Brightness Start Highest point End
(mag) Time Altitude Azimuth Time Altitude Azimuth Time Altitude Azimuth
BREEZE-M DEB (TANK) 4.2 14:19:12 10° WNW 14:22:39 56° SW 14:34:08 10° SE
Aureole 3 Rocket 3.5 14:30:42 10° SSE 14:33:48 31° E 14:37:43 10° NNE
Gbstr 26 Del rocket 4.4 14:31:43 10° NW 14:38:24 85° SW 14:46:15 10° SE
Cosmos 1980 Rocket 3.9 14:38:02 10° ESE 14:40:10 12° E 14:42:19 10° ENE
Cosmos 1703 4.4 14:37:46 10° NNW 14:41:36 49° W 14:45:24 10° SSW
CORIOLIS 4.1 14:39:52 10° SSE 14:45:12 86° ENE 14:50:34 10° NNW
FengYun 1-2 T 4.3 14:39:57 10° SSE 14:45:32 64° ENE 14:51:07 10° N
Cosmos 2297 Rocket 3.3 14:43:42 10° N 14:48:07 23° ENE 14:52:30 10° ESE
Meteor 1-11 4.3 14:43:05 10° N 14:48:52 87° E 14:54:39 10° S
Cosmos 1302 Rocket 4.2 14:46:51 10° SSW 14:52:05 81° WNW 14:57:23 10° NNE
ERS-2 4.0 14:51:15 10° N 14:54:33 33° WNW 14:57:51 10° SW
SAR-Lupe-4 3.8 14:51:27 10° N 14:55:02 74° WNW 14:58:35 10° SSW
USA 281 3.3 14:49:26 10° SSE 14:56:00 84° WSW 15:02:36 10° NNW
Meteor 2-8 Rocket 4.4 14:52:13 10° S 14:58:15 69° E 15:04:19 10° NNE
COSMO-SKYMED 1 2.5 14:53:56 10° NNE 14:58:18 79° ESE 15:02:36 10° S
Aureole 3 2.7 14:55:13 10° S 14:58:44 84° E 15:01:47 10° N
Cosmos 1340 3.4 14:55:54 10° NNE 14:59:14 29° ENE 15:02:33 10° SE
Timation 2 Rocket 4.3 14:53:44 10° N 15:00:16 52° ENE 15:06:55 10° SE
Okean O Rocket 3.0 14:58:48 10° S 15:02:57 43° W 15:07:07 10° NNW
ASTRO E2 2.7 15:00:03 10° WSW 15:04:00 75° S 15:06:49 18° E
YAOGAN 1 3.7 15:01:51 10° ESE 15:05:13 23° ENE 15:08:36 10° NNE
Feng Yun 1-1 Rocket 4.3 14:59:57 10° SSE 15:05:46 73° ENE 15:11:42 10° N
GPS 2-04 Rocket1 2.9 15:03:08 10° SW 15:07:07 60° SSE 15:09:52 20° E
CZ-2C R/B 4.0 15:02:25 10° SE 15:07:23 30° ENE 15:12:18 10° NNE
Cosmos 1825 Rocket 4.4 15:04:02 10° NNW 15:08:21 54° W 15:12:37 10° S
Elektron 3 4.0 15:05:56 10° NNW 15:10:24 74° NE 15:13:19 10° SE
Cosmos 1553 Rocket 4.0 15:04:21 10° S 15:10:41 71° E 15:16:58 10° N
Cosmos 1812 Rocket 4.5 15:07:55 10° SE 15:11:34 26° E 15:15:12 10° NE
Delta 2 Rocket 4.0 15:07:25 10° WNW 15:12:37 70° NNE 15:16:34 20° E
Cosmos 44 Rocket 3.7 15:10:23 10° S 15:14:43 39° ESE 15:17:52 17° NE
Cosmos 1455 2.6 15:13:26 10° SSE 15:16:54 37° E 15:20:24 10° NNE
Meteor 2-10 Rocket 3.6 15:12:06 10° S 15:17:26 58° E 15:22:33 10° NNE
Cosmos 2219 3.5 15:12:56 10° N 15:18:28 46° ENE 15:23:56 10° SE
ASC 2 Rocket 4.4 15:16:39 10° WSW 15:20:27 32° S 15:24:02 15° SE
Cosmos 1939 Rocket 2.8 15:20:24 10° S 15:24:24 83° WSW 15:28:21 10° NNW
CZ-4 R/B 4.3 15:24:13 10° SSE 15:28:21 80° E 15:32:31 10° N
ARGOS 4.4 15:31:38 22° NE 15:31:38 22° NE 15:34:46 10° NNE
Helios 1A Rocket 2.8 15:27:06 10° SSE 15:31:11 73° ENE 15:35:17 10° N
Cosmos 1992 Rocket 3.9 15:26:06 10° SSW 15:31:17 88° ESE 15:36:31 10° NNE
Meteor 2-15 4.4 15:26:06 10° S 15:32:14 85° E 15:38:24 10° N
Cosmos 2369 3.6 15:26:46 10° SSW 15:32:27 73° ESE 15:38:09 10° NNE
Okean-O 2.5 15:31:52 10° SSE 15:36:15 72° ENE 15:40:40 10° N
BREEZE-M DEB (TANK) 2.9 15:37:00 10° WSW 15:39:46 35° NW 15:40:00 34° NNW
H-2A R/B 2.5 15:37:35 20° SE 15:40:53 41° ENE 15:45:58 10° N
OAO 2 Rocket 3.5 15:36:01 10° W 15:40:56 59° N 15:42:39 37° NE
SL-08 R/B 4.4 15:36:04 10° N 15:42:14 89° ENE 15:48:19 10° S
Cosmos 1745 Rocket 3.9 15:39:09 10° N 15:45:26 66° E 15:51:43 10° SSE
Delta 142 4.3 15:41:19 10° W 15:45:57 56° S 15:48:13 33° SE
CZ-3B R/B 4.4 15:41:07 10° WSW 15:47:25 29° S 15:48:44 25° SSE
CSL-04 Rocket 3.9 15:44:21 19° SE 15:48:11 49° ENE 15:53:29 10° N
CZ-4 R/B 1.2 15:44:19 10° S 15:48:14 84° WSW 15:52:08 10° NNW
Atlas Centaur 2 3.1 15:42:34 10° W 15:51:03 82° S 15:54:58 37° E
Cosmos 2227 Rocket 2.1 15:46:51 10° NNW 15:52:30 69° ENE 15:55:54 25° SSE
Meteor 2-1 Rocket 4.4 15:49:01 10° SSW 15:54:30 70° W 16:00:00 10° N
Milstar 3 2.8 15:48:48 10° W 15:55:38 71° S 15:58:19 39° ESE
Cosmos 2058 2.7 15:54:08 10° N 15:58:14 89° E 15:58:47 66° S
Cosmos 1386 Rocket 4.4 15:52:36 10° N 15:59:01 81° E 16:05:18 10° S
Cosmos 1892 3.5 15:56:56 10° NNW 16:00:43 52° W 16:04:27 10° S
Cosmos 1697 Rocket 3.5 15:55:30 10° SW 16:00:55 50° WNW 16:06:22 10° N
OAO 3 Rocket 3.3 16:03:36 10° WNW 16:08:19 63° SSW 16:08:31 62° S
SJ-11-01 4.5 16:15:01 61° NNW 16:15:01 61° NNW 16:18:52 10° NNW
Cosmos 1709 Rocket 3.9 16:08:55 10° N 16:14:56 62° ENE 16:14:56 62° ENE
Cosmos 1346 Rocket 3.9 16:15:20 10° NNW 16:18:27 41° WNW 16:18:27 41° WNW
Cosmos 1980 Rocket 2.5 16:17:54 10° SSW 16:23:30 65° WNW 16:25:26 40° N
Cosmos 2315 Rocket 3.9 16:19:22 10° S 16:25:35 81° W 16:31:48 10° N
Cosmos 968 Rocket 4.2 16:24:27 10° NNW 16:29:28 50° WSW 16:31:14 35° SSW
Cosmos 2297 Rocket 3.4 16:27:00 10° NW 16:32:13 39° WSW 16:37:24 10° S
H-2A R/B 4.5 17:18:13 16° WSW 17:20:23 19° W 17:24:13 10° NW
Atlas Centaur 2 4.1 17:32:31 10° W 17:37:33 39° W 17:37:33 39° W
H-2A R/B (2) 4.1 17:23:44 10° W 17:45:44 54° WSW 17:45:44 54° WSW
